Flag for Italy Weather past 2 weeks in Bolzano, Italy

Now
79 °F

Passing clouds.


Feels Like: 79 °F
Forecast: 48 / 79 °F
Wind: 3 mph from North

Location: Bolzano

Current Time: Aug 27, 2014 at 9:51:45 PM

Latest Report: Aug 27, 2014 at 8:50 PM


Visibility: N/A

Pressure: 29.89 "Hg

Humidity: 32%

Dew point: 46 °F

Location of BolzanoLocation

Historic Weather in Bolzano — Graph

°F

Bolzano temperature yesterday

Maximum temperature yesterday: 75 °F (at 2:50 PM)
Minimum temperature yesterday: 61 °F (at 6:50 AM)
Average temperature yesterday: 69 °F

Past Weeks' High & Low Weather Summary

 TemperatureHumidityPressure
High86 °F (Aug 27, 3:50 PM)100% (Aug 12, 7:50 PM)30.15 "Hg (Aug 12, 7:50 PM)
Low50 °F (Aug 17, 6:50 AM)29% (Aug 27, 3:50 PM)29.68 "Hg (Aug 13, 5:50 PM)
Average68 °F77%29.93 "Hg
* Reported Aug 12 7:50 PM — Aug 27 7:50 PM, Bolzano, Weather by CustomWeather, © 2014

Note: Actual official high and low records may vary slightly from our data, if they occured in-between our weather recording intervals... More about our weather records

Advertising

Bolzano weather history for previous 24 hours

 ConditionsComfort  
Time TempWeatherWind HumidityBarometerVisibility
7:50 PM
Aug 27
79 °FPassing clouds.2 mph37%29.86 "HgN/A
6:50 PM82 °FPassing clouds.9 mph32%29.80 "HgN/A
5:50 PM84 °FPassing clouds.12 mph35%29.80 "HgN/A
4:50 PM86 °FPassing clouds.10 mph31%29.80 "HgN/A
3:50 PM86 °FPassing clouds.13 mph29%29.80 "HgN/A
2:50 PM84 °FPassing clouds.12 mph33%29.80 "HgN/A
1:50 PM84 °FPassing clouds.8 mph43%29.83 "HgN/A
12:50 PM81 °FPassing clouds.3 mph48%29.83 "HgN/A
11:50 AM79 °FPassing clouds.2 mph58%29.83 "HgN/A
10:50 AM75 °FPassing clouds.2 mph69%29.86 "HgN/A
9:50 AM72 °FPassing clouds.2 mph78%29.86 "HgN/A
8:50 AM66 °FPassing clouds.2 mph88%29.86 "HgN/A
7:50 AM64 °FScattered clouds.2 mph100%29.83 "HgN/A
6:50 AM64 °FPassing clouds.No wind100%29.80 "Hg6 mi
10:50 PM
Aug 26
68 °FPassing clouds.3 mph83%29.83 "HgN/A
9:50 PM68 °FPartly cloudy.2 mph88%29.83 "HgN/A
Weather by CustomWeather, © 2014

See weather overviewHow to use our weather pages